Regional Weather Roundup
Issued by NWS

Home | Current Version | Previous Version | Graphics & Text | Print | Product List | Glossary On
Versions: 1 2 3 4 5 6 7 8 9 10 11 12 13 14 15 16 17 18 19 20 21 22 23 24 25 26 27 28 29 30 31 32 33 34 35 36 37 38 39 40 41 42 43 44 45 46 47 48 49 50
000
ASUS43 KIND 290159
RWRIN

WEATHER ROUNDUP FOR INDIANA
NATIONAL WEATHER SERVICE INDIANAPOLIS IN
1000 PM EDT TUE MAR 28 2017

NOTE: "FAIR" INDICATES FEW OR NO CLOUDS BELOW 12,000 FEET WITH NO
SIGNIFICANT WEATHER AND/OR OBSTRUCTIONS TO VISIBILITY.

* - STATION DOES NOT REPORT WEATHER SUCH AS PRECIPITATION OR FOG.

+ - STATION NOT QUALITY CONTROLLED BY THE NATIONAL WEATHER SERVICE.
    USE DATA WITH CAUTION...ESPECIALLY DEWPOINT AND RELATIVE
    HUMIDITY OBSERVATIONS.

INZ001>003-010>013-019-020-290300-
NORTHWEST INDIANA

CITY           SKY/WX    TMP DP  RH WIND       PRES   REMARKS
GARY /AIRPORT/ CLOUDY    41  37  87 VRB5      30.20S
MONTICELLO +   CLOUDY    44  41  90 N5        30.17R

$$

LMZ046-743>745-290300-
SOUTHERN LAKE MICHIGAN

STATION/POSITION TIME  TEMP    WIND        PRES    WAVE
                       AIR SEA DIR/SP/G            HT
                 (UTC) (F)     (DEG/KT/KT) (MB)    (FT)
BURNS HARBOR     0130   39      40/  7/  8 1023.0R
MICHIGAN CITY    0130   38      20/  9/ 10   N/A

$$

INZ004-005-014>016-021>024-290300-
NORTH CENTRAL INDIANA

CITY           SKY/WX    TMP DP  RH WIND       PRES   REMARKS
GOSHEN         CLOUDY    46  38  73 NE14      30.18R
SOUTH BEND     CLOUDY    43  39  86 N6        30.19R

$$

INZ006>009-017-018-025>027-290300-
NORTHEAST INDIANA

CITY           SKY/WX    TMP DP  RH WIND       PRES   REMARKS
ANGOLA *+      PTCLDY    43  39  87 E7        30.19R
FORT WAYNE     CLOUDY    49  41  74 NE8       30.17R
KENDALLVILLE + CLOUDY    45  39  82 NE9       30.18R

$$

INZ028-029-035-036-043>045-051>053-290300-
WEST CENTRAL INDIANA

CITY           SKY/WX    TMP DP  RH WIND       PRES   REMARKS
CRAWFORDSVL +  CLOUDY    46  42  87 N6        30.16R
LAFAYETTE      CLOUDY    45  41  86 N6        30.17R
TERRE HAUTE    CLOUDY    52  44  74 NE9       30.13R

$$

INZ030>032-037>040-046>048-054>057-064-065-290300-
CENTRAL INDIANA

CITY           SKY/WX    TMP DP  RH WIND       PRES   REMARKS
COLUMBUS       CLOUDY    54  50  87 NE6       30.14R
INDIANAPOLIS   CLOUDY    51  44  77 N12       30.14R
-EAGLE CREEK   CLOUDY    51  43  74 N7        30.14R
KOKOMO +       CLOUDY    48  44  86 NE7       30.17R
SHELBYVILLE    CLOUDY    53  46  77 N7        30.14R

$$

INZ033-034-041-042-049-050-058-059-290300-
EAST CENTRAL INDIANA

CITY           SKY/WX    TMP DP  RH WIND       PRES   REMARKS
MUNCIE         CLOUDY    50  47  89 E6        30.15R FOG
RICHMOND +     CLOUDY    46  45  93 NE7       30.15R FOG

$$

INZ060-061-067>069-081>083-085>088-290300-
SOUTHWEST INDIANA

CITY           SKY/WX    TMP DP  RH WIND       PRES   REMARKS
EVANSVILLE     CLEAR     53  50  89 CALM      30.09R
HUNTINGBURG *+ PTCLDY    56  51  84 NE5       30.09S

$$

INZ062-063-066-070>080-084-089>092-290300-
SOUTH CENTRAL AND SOUTHEAST INDIANA

CITY           SKY/WX    TMP DP  RH WIND       PRES   REMARKS
BLOOMINGTON    CLOUDY    55  46  71 N7        30.12R
MADISON *+     CLOUDY    55  46  71 N3        30.13S
SEYMOUR +      CLOUDY    57  48  72 NE7       30.12R

$$




USA.gov is the U.S. government's official web portal to all federal, state and local government web resources and services.